Weather reports worldwide

Advertisment
Ciudad Real, Spain (8348): temperature & dewpoint: 07.12.2018 10:00:00 - 13.12.2018 10:00:00 (CET)Ciudad Real, Spain (8348): wind speed: 07.12.2018 10:00:00 - 13.12.2018 10:00:00 (CET)Ciudad Real, Spain (8348): wind direction: 07.12.2018 10:00:00 - 13.12.2018 10:00:00 (CET)Ciudad Real, Spain (8348): reduced air pressure: 07.12.2018 10:00:00 - 13.12.2018 10:00:00 (CET)Ciudad Real, Spain (8348): visibility: 07.12.2018 10:00:00 - 13.12.2018 10:00:00 (CET)Ciudad Real, Spain (8348): precipitation: 07.12.2018 10:00:00 - 13.12.2018 10:00:00 (CET)
Date & Time tt [°C] td [°C] ff [km/h] ff [kn] dd ppp [hPa] vv [km] rr [mm]
13.12.2018 10:00:00 9,9 8,5 18 10 W 1009,9 13 -
13.12.2018 09:00:00 9,2 8,6 11 6 S 1009,6 - 2,0
13.12.2018 08:00:00 8,8 8,0 9 5 S 1011,3 9 0,4
13.12.2018 07:00:00 8,6 7,8 8 4 SSW 1013,2 7 -
13.12.2018 06:00:00 8,6 7,5 9 5 WSW 1015,2 7 0,0
13.12.2018 05:00:00 8,5 7,6 5 3 SSE 1015,4 4,5 0,2
13.12.2018 04:00:00 8,6 7,5 4 2 S 1016,9 - -
13.12.2018 03:00:00 9,1 7,2 9 5 WSW 1018,2 7 0,0
13.12.2018 02:00:00 9,2 7,1 8 4 WSW 1019,1 11 0,0
13.12.2018 01:00:00 9,3 7,2 8 4 WSW 1019,4 11 -
13.12.2018 00:00:00 9,6 7,4 9 5 SW 1020,0 12 0,0
12.12.2018 23:00:00 9,8 7,2 11 6 WSW 1020,2 13 0,0
12.12.2018 22:00:00 9,9 7,3 8 4 WSW 1020,7 13 -
12.12.2018 21:00:00 10,2 7,1 8 4 WSW 1020,8 13 0,0
12.12.2018 20:00:00 10,7 7,2 5 3 W 1020,9 17 0,0
12.12.2018 19:00:00 11,1 6,8 8 4 WSW 1021,1 15 -
12.12.2018 18:00:00 11,4 6,9 8 4 WSW 1020,8 20 0,0
12.12.2018 17:00:00 11,8 6,7 9 5 WSW 1020,9 20 0,0
12.12.2018 16:00:00 12,0 7,1 8 4 W 1021,0 20 -
12.12.2018 15:00:00 11,9 7,2 8 4 WSW 1020,9 20 0,0
12.12.2018 14:00:00 11,6 7,3 8 4 W 1021,9 18 0,0
12.12.2018 13:00:00 11,1 8,0 8 4 WSW 1023,2 14 -
12.12.2018 12:00:00 10,1 8,5 4 2 WSW 1024,3 8 0,0
12.12.2018 11:00:00 9,1 8,0 4 2 SSE 1025,0 - 0,0
12.12.2018 10:00:00 8,8 7,6 4 2 SSW 1024,8 6 -
12.12.2018 09:00:00 8,5 7,9 4 2 NW 1024,6 - 0,0
12.12.2018 08:00:00 8,3 7,9 5 3 WSW 1024,5 - 0,0
12.12.2018 07:00:00 7,8 7,5 4 2 WSW 1024,4 5 -
12.12.2018 06:00:00 6,7 6,3 2 1 W 1024,9 - 0,0
12.12.2018 05:00:00 6,6 6,5 4 2 SW 1024,8 6 0,0
12.12.2018 04:00:00 5,2 4,2 4 2 W 1025,4 4,5 -
12.12.2018 03:00:00 6,2 4,8 2 1 WSW 1024,8 4,6 0,0
12.12.2018 02:00:00 7,3 5,8 4 2 SW 1024,3 6 0,0
12.12.2018 01:00:00 8,1 6,7 4 2 SW 1024,8 10 -
12.12.2018 00:00:00 8,8 6,9 8 4 WSW 1025,1 13 0,0
11.12.2018 23:00:00 9,4 7,2 4 2 WSW 1024,7 14 0,0
11.12.2018 22:00:00 9,6 6,9 4 2 W 1025,0 15 -
11.12.2018 21:00:00 10,1 7,0 5 3 W 1024,4 17 0,0
11.12.2018 20:00:00 10,5 7,2 5 3 W 1023,9 16 0,0
11.12.2018 19:00:00 11,1 6,2 9 5 WSW 1023,9 15 -
11.12.2018 18:00:00 12,4 6,0 9 5 WSW 1023,3 20 0,0
11.12.2018 17:00:00 14,4 6,7 9 5 W 1022,2 20 0,0
11.12.2018 16:00:00 15,4 5,3 9 5 W 1021,8 20 -
11.12.2018 15:00:00 15,8 5,4 8 4 WSW 1021,7 20 0,0
11.12.2018 14:00:00 16,1 4,8 13 7 WSW 1022,0 20 0,0
11.12.2018 13:00:00 13,6 3,6 5 3 W 1023,7 20 -
11.12.2018 12:00:00 10,3 2,6 5 3 WNW 1025,6 19 0,0
11.12.2018 11:00:00 7,0 2,5 2 1 WNW 1026,5 19 0,0
11.12.2018 10:00:00 3,2 0,9 2 1 E 1027,0 20 -
11.12.2018 09:00:00 1,4 0,4 2 1 NE 1027,2 18 0,0
11.12.2018 08:00:00 1,4 0,2 2 1 ENE 1027,2 12 0,0
11.12.2018 07:00:00 2,0 0,7 2 1 ENE 1026,8 12 -
11.12.2018 06:00:00 2,5 0,9 4 2 SSE 1026,8 16 0,0
11.12.2018 05:00:00 2,9 1,1 2 1 E 1027,2 18 0,0
11.12.2018 04:00:00 3,4 1,6 2 1 NE 1027,5 15 -
11.12.2018 03:00:00 3,9 1,9 4 2 NNW 1027,7 14 0,0
11.12.2018 02:00:00 4,5 1,9 2 1 NNW 1027,6 19 0,0
11.12.2018 01:00:00 5,0 2,2 2 1 N 1028,0 15 -
11.12.2018 00:00:00 5,8 3,1 2 1 ENE 1028,3 12 0,0
10.12.2018 23:00:00 6,6 3,6 2 1 N 1028,3 10 0,0
10.12.2018 22:00:00 7,3 3,7 2 1 E 1028,2 10 -
10.12.2018 21:00:00 8,2 4,0 4 2 ENE 1028,0 9 0,0
10.12.2018 20:00:00 9,5 3,9 2 1 ESE 1027,8 13 0,0
10.12.2018 19:00:00 11,2 3,9 0 0 N 1027,2 15 -
10.12.2018 18:00:00 13,6 3,9 4 2 ENE 1026,5 20 0,0
10.12.2018 17:00:00 15,5 2,3 4 2 E 1026,1 20 0,0
10.12.2018 16:00:00 15,9 2,7 5 3 NE 1026,3 20 -
10.12.2018 15:00:00 15,5 4,2 8 4 ENE 1026,8 20 0,0
10.12.2018 14:00:00 15,1 4,2 9 5 ENE 1028,0 20 0,0
10.12.2018 13:00:00 13,4 6,5 4 2 E 1029,5 20 -
10.12.2018 12:00:00 9,9 5,9 4 2 E 1031,7 15 0,0
10.12.2018 11:00:00 6,2 5,9 2 1 E 1033,4 9 0,0
10.12.2018 10:00:00 3,9 3,9 2 1 NNW 1033,9 5 -
10.12.2018 09:00:00 1,7 1,4 4 2 NNE 1034,1 - 0,0
10.12.2018 08:00:00 1,9 1,0 4 2 N 1033,7 - 0,0
10.12.2018 07:00:00 2,4 2,0 2 1 NNE 1033,5 4,5 -
10.12.2018 06:00:00 2,9 2,3 2 1 N 1033,3 4,8 0,0
10.12.2018 05:00:00 3,5 2,9 2 1 ENE 1033,4 - 0,0
10.12.2018 04:00:00 4,2 3,8 4 2 NNW 1033,5 6 -
10.12.2018 03:00:00 4,7 4,1 4 2 NE 1033,7 - 0,0
10.12.2018 02:00:00 4,9 4,2 4 2 NNE 1033,5 4,8 0,0
10.12.2018 01:00:00 5,4 4,4 2 1 E 1034,0 4,4 -
10.12.2018 00:00:00 6,0 4,8 2 1 E 1033,7 6 0,0
09.12.2018 23:00:00 6,7 5,3 2 1 ESE 1033,2 8 0,0
09.12.2018 22:00:00 7,5 5,6 0 0 N 1033,0 11 -
09.12.2018 21:00:00 8,2 6,0 2 1 NNE 1032,7 11 0,0
09.12.2018 20:00:00 9,3 6,0 2 1 NNE 1032,1 13 0,0
09.12.2018 19:00:00 10,9 6,4 2 1 NE 1031,1 19 -
09.12.2018 18:00:00 13,1 6,0 4 2 ESE 1029,9 19 0,0
09.12.2018 17:00:00 15,3 6,3 4 2 ESE 1028,9 20 0,0
09.12.2018 16:00:00 16,7 5,3 4 2 ESE 1028,4 20 -
09.12.2018 15:00:00 17,3 6,5 2 1 SSE 1028,6 20 0,0
09.12.2018 14:00:00 15,6 6,8 4 2 SE 1029,6 19 0,0
09.12.2018 13:00:00 12,2 7,5 4 2 ESE 1031,3 19 -
09.12.2018 12:00:00 8,4 6,5 2 1 NNW 1032,9 14 0,0
09.12.2018 11:00:00 5,3 5,3 2 1 N 1034,3 9 0,0
09.12.2018 10:00:00 3,2 3,2 0 0 N 1034,9 0,6 -
09.12.2018 09:00:00 2,4 2,4 2 1 N 1034,8 0,3 0,0
09.12.2018 08:00:00 1,7 1,6 4 2 NNW 1034,8 3,1 0,0
09.12.2018 07:00:00 1,9 1,8 2 1 WNW 1034,4 3,2 -
09.12.2018 06:00:00 2,0 1,9 4 2 SE 1034,1 0,2 0,0
09.12.2018 05:00:00 2,0 1,7 2 1 E 1034,4 3,2 0,0
09.12.2018 04:00:00 2,2 1,8 0 0 N 1034,4 3,9 -
09.12.2018 03:00:00 2,9 2,5 0 0 N 1034,0 3,2 0,0
09.12.2018 02:00:00 3,3 2,7 2 1 SSE 1033,9 4,1 0,0
09.12.2018 01:00:00 3,9 3,3 0 0 N 1033,9 2,8 -
09.12.2018 00:00:00 4,5 3,9 0 0 N 1033,6 2,8 0,0
08.12.2018 23:00:00 5,0 4,4 4 2 SSE 1033,5 3,0 0,0
08.12.2018 22:00:00 5,8 5,1 2 1 N 1033,1 3,9 -
08.12.2018 21:00:00 6,5 5,8 4 2 WNW 1032,7 - 0,0
08.12.2018 20:00:00 7,2 5,8 4 2 NW 1032,4 - 0,0
08.12.2018 19:00:00 8,5 6,6 2 1 NNW 1031,6 8 -
08.12.2018 18:00:00 10,0 7,4 2 1 NNW 1030,6 16 0,0
08.12.2018 17:00:00 11,3 7,8 4 2 SE 1030,0 19 0,0
08.12.2018 16:00:00 12,1 8,2 8 4 SSE 1029,4 19 -
08.12.2018 15:00:00 12,7 8,6 2 1 SE 1029,8 13 0,0
08.12.2018 14:00:00 11,3 8,3 2 1 ESE 1030,5 18 0,0
08.12.2018 13:00:00 9,7 7,6 2 1 ENE 1031,2 11 -
08.12.2018 12:00:00 7,6 7,3 2 1 ESE 1032,2 15 0,0
08.12.2018 11:00:00 5,9 5,9 2 1 WNW 1033,0 1,2 0,0
08.12.2018 10:00:00 4,8 4,8 4 2 WSW 1033,1 0,4 -
08.12.2018 09:00:00 4,1 4,1 4 2 WSW 1032,7 0,6 0,0
08.12.2018 08:00:00 3,9 3,8 5 3 W 1032,2 0,3 0,0
08.12.2018 07:00:00 3,5 3,4 4 2 WSW 1031,8 0,7 -
08.12.2018 06:00:00 2,8 2,1 0 0 N 1031,6 6 0,0
08.12.2018 05:00:00 3,5 2,8 0 0 N 1031,2 10 0,0
08.12.2018 04:00:00 4,3 3,4 2 1 NNE 1031,3 9 -
08.12.2018 03:00:00 5,5 4,5 2 1 ESE 1030,8 11 0,0
08.12.2018 02:00:00 6,3 5,4 2 1 WSW 1030,6 18 0,0
08.12.2018 01:00:00 7,3 6,1 8 4 WSW 1030,4 20 -
08.12.2018 00:00:00 7,6 6,2 5 3 WSW 1030,5 20 0,0
07.12.2018 23:00:00 8,3 6,8 5 3 WSW 1030,5 20 0,0
07.12.2018 22:00:00 9,4 7,7 4 2 SW 1030,0 20 -
07.12.2018 21:00:00 10,6 8,7 4 2 W 1029,3 19 0,0
07.12.2018 20:00:00 11,1 9,2 5 3 WSW 1028,5 17 0,0
07.12.2018 19:00:00 11,9 9,3 5 3 WSW 1028,1 19 -
07.12.2018 18:00:00 13,5 9,3 4 2 W 1027,6 20 0,0
07.12.2018 17:00:00 14,6 9,0 5 3 WNW 1026,9 20 0,0
07.12.2018 16:00:00 15,0 8,2 4 2 SW 1026,6 20 -
07.12.2018 15:00:00 14,5 9,3 4 2 S 1027,3 18 0,0
07.12.2018 14:00:00 12,5 8,6 2 1 SE 1028,5 9 0,0
07.12.2018 13:00:00 8,8 8,3 8 4 SE 1029,9 0,6 -
07.12.2018 12:00:00 6,5 6,5 2 1 W 1031,8 0,3 0,0
07.12.2018 11:00:00 5,5 5,5 2 1 E 1031,6 0,1 0,0
07.12.2018 10:00:00 4,1 4,1 2 1 E 1031,8 0,1 -

tt = temperature
td = dewpoint
ff = wind speed
dd = wind direction
ppp = reduced air pressure
vv = visibility
rr = precipitation

Next stations